Location: São Paulo
(23.5507°S, 46.6334°W)
Time: 07:03:04
(UTC-03:00)

Vanguard 3 - Pass Details

Date: 23 February 2026
Orbit: 507 x 3205 km, 33.4° (Epoch: 7 March)

Event Time Altitude Azimuth Distance (km) Brightness Sun altitude
Exits shadow 03:07:19 58° 197° (SSW) 1,630 8.5 -37.2°
Maximum altitude 03:07:30 58° 192° (SSW) 1,643 8.6 -37.2°
Drops below altitude 10° 03:19:45 10° 115° (ESE) 4,836 11.9 -34.8°
Sets 03:24:40 0° 111° (ESE) 6,261 12.7 -33.9°
